Location: Wheeling
(40.0640°N, 80.7210°W)
Time: 13:45:19
(UTC-05:00)

ITAMSAT 1 - Pass Details

Date: 27 October 2021
Orbit: 784 x 796 km, 98.9° (Epoch: 01 December)

Event Time Altitude Azimuth Distance (km) Brightness Sun altitude
Rises 20:59:26 0° 205° (SSW) 3,259 11.1 -29.9°
Reaches altitude 10° 21:02:24 10° 223° (SW) 2,337 10.5 -30.4°
Maximum altitude 21:05:59 19° 267° (W) 1,808 10.2 -31.1°
Drops below altitude 10° 21:09:35 10° 311° (NW) 2,353 10.8 -31.8°
Sets 21:12:37 0° 330° (NNW) 3,289 11.4 -32.4°
